This is the latest recevied weather packets stored in our database for station/object HB9EKJ-13. If no packets are shown the sender has not sent any weather packets the latest 10 day(s).
| Time | Temp. | Humidity | Pressure | Rain* | Wind** | Luminosity | Snow |
|---|---|---|---|---|---|---|---|
| 1778093527 | 10.56° C | 29% | 1013.9 hPa | 0 mm | - | - | - |
| 1778093227 | 10.56° C | 29% | 1013.9 hPa | 0 mm | - | - | - |
| 1778092628 | 10.56° C | 29% | 1013.9 hPa | 0 mm | - | - | - |
| 1778092328 | 10.56° C | 29% | 1013.9 hPa | 0 mm | - | - | - |
| 1778091727 | 10.56° C | 29% | 1012.9 hPa | 0 mm | - | - | - |
| 1778091428 | 10.56° C | 29% | 1012.9 hPa | 0 mm | - | - | - |
| 1778090827 | 11.11° C | 28% | 1012.9 hPa | 0 mm | - | - | - |
| 1778090529 | 11.11° C | 28% | 1012.9 hPa | 0 mm | - | - | - |
| 1778089928 | 11.11° C | 27% | 1012.9 hPa | 0 mm | - | - | - |
| 1778089628 | 11.67° C | 27% | 1012.9 hPa | 0 mm | - | - | - |
| 1778089027 | 11.67° C | 27% | 1011.8 hPa | 0 mm | - | - | - |
| 1778088727 | 11.67° C | 27% | 1011.8 hPa | 0 mm | - | - | - |
| 1778088129 | 11.67° C | 27% | 1011.8 hPa | 0 mm | - | - | - |
| 1778087828 | 12.22° C | 28% | 1011.8 hPa | 0 mm | - | - | - |
| 1778087228 | 12.78° C | 29% | 1011.8 hPa | 0 mm | - | - | - |
| 1778086328 | 12.78° C | 32% | 1011.8 hPa | 0 mm | - | - | - |
| 1778085427 | 11.67° C | 30% | 1011.8 hPa | 0 mm | - | - | - |
| 1778082727 | 12.22° C | 32% | 1011.8 hPa | 0 mm | - | - | - |
| 1778082128 | 11.67° C | 33% | 1011.8 hPa | 0 mm | - | - | - |
| 1778081826 | 11.67° C | 35% | 1011.8 hPa | 0 mm | - | - | - |
| 1778080329 | 11.11° C | 37% | 1012.9 hPa | 0 mm | - | - | - |
| 1778079128 | 10.56° C | 37% | 1012.9 hPa | 0 mm | - | - | - |
| 1778077627 | 10° C | 36% | 1011.8 hPa | 0 mm | - | - | - |
| 1778077327 | 10° C | 36% | 1011.8 hPa | 0 mm | - | - | - |
| 1778076726 | 10.56° C | 36% | 1011.8 hPa | 0 mm | - | - | - |
* Rain latest hour (hover to see other rain measurements)
** Current wind speed in m/s (hover to see current wind gust speed)